contact:dominique.lefevre@mio.osupytheas.fr, maurice.libes@osupytheas.fr, didier.mallarino@osupytheas.fr
Project:EMSO http://www.emso-fr.org/EMSO-France
Depth: 2436.0 m
Title:EMSO Ligure Ouest : Data MII capteur MICROCAT
DateTime_Computer,Latitude,Longitude,Temperature,Conductivity,Pressure,DateTime_Instrument
DateTime_Computer,Latitude,Longitude,degC,S m-1,dbar,DateTime_Instrument
2019-08-27T00:02:26Z,42.805,6.029,13.2958,4.59960,2469.83,2019-8-27T02:02:48Z
2019-08-27T00:05:29Z,42.805,6.029,13.2957,4.59961,2469.89,2019-8-27T02:05:51Z
2019-08-27T00:08:33Z,42.805,6.029,13.2958,4.59961,2469.867,2019-8-27T02:08:54Z
2019-08-27T00:11:36Z,42.805,6.029,13.2962,4.59964,2469.83,2019-8-27T02:11:57Z
2019-08-27T00:14:39Z,42.805,6.029,13.2958,4.59964,2469.853,2019-8-27T02:15:01Z
2019-08-27T00:17:42Z,42.805,6.029,13.2963,4.59961,2469.9,2019-8-27T02:18:04Z
2019-08-27T00:20:45Z,42.805,6.029,13.2958,4.59961,2469.89,2019-8-27T02:21:07Z
2019-08-27T00:23:49Z,42.805,6.029,13.2958,4.59959,2469.867,2019-8-27T02:24:10Z
2019-08-27T00:26:52Z,42.805,6.029,13.2959,4.59958,2469.83,2019-8-27T02:27:14Z
2019-08-27T00:29:55Z,42.805,6.029,13.2960,4.59958,2469.853,2019-8-27T02:30:17Z
2019-08-27T00:32:58Z,42.805,6.029,13.2957,4.59960,2469.853,2019-8-27T02:33:20Z
2019-08-27T00:36:02Z,42.805,6.029,13.2958,4.59958,2469.876,2019-8-27T02:36:23Z
2019-08-27T00:39:05Z,42.805,6.029,13.2957,4.59961,2469.853,2019-8-27T02:39:26Z
2019-08-27T00:42:08Z,42.805,6.029,13.2956,4.59959,2469.853,2019-8-27T02:42:30Z
2019-08-27T00:45:11Z,42.805,6.029,13.2960,4.59962,2469.867,2019-8-27T02:45:33Z
2019-08-27T00:48:14Z,42.805,6.029,13.2958,4.59962,2469.876,2019-8-27T02:48:36Z
2019-08-27T00:51:18Z,42.805,6.029,13.2958,4.59961,2469.83,2019-8-27T02:51:39Z
2019-08-27T00:54:21Z,42.805,6.029,13.2961,4.59961,2469.83,2019-8-27T02:54:42Z
2019-08-27T00:57:24Z,42.805,6.029,13.2959,4.59959,2469.853,2019-8-27T02:57:46Z
2019-08-27T01:00:27Z,42.805,6.029,13.2958,4.59958,2469.853,2019-8-27T03:00:49Z
2019-08-27T01:03:30Z,42.805,6.029,13.2960,4.59958,2469.853,2019-8-27T03:03:52Z
2019-08-27T01:06:34Z,42.805,6.029,13.2956,4.59957,2469.914,2019-8-27T03:06:55Z
2019-08-27T01:09:37Z,42.805,6.029,13.2955,4.59956,2469.876,2019-8-27T03:09:58Z
2019-08-27T01:12:40Z,42.805,6.029,13.2960,4.59962,2469.89,2019-8-27T03:13:01Z
2019-08-27T01:15:43Z,42.805,6.029,13.2957,4.59960,2469.876,2019-8-27T03:16:05Z
2019-08-27T01:18:46Z,42.805,6.029,13.2957,4.59964,2469.9,2019-8-27T03:19:08Z
2019-08-27T01:21:49Z,42.805,6.029,13.2960,4.59958,2469.876,2019-8-27T03:22:11Z
2019-08-27T01:24:53Z,42.805,6.029,13.2957,4.59958,2469.876,2019-8-27T03:25:14Z
2019-08-27T01:27:56Z,42.805,6.029,13.2957,4.59960,2469.876,2019-8-27T03:28:18Z
2019-08-27T01:30:59Z,42.805,6.029,13.2958,4.59958,2469.853,2019-8-27T03:31:21Z
2019-08-27T01:34:03Z,42.805,6.029,13.2959,4.59957,2469.923,2019-8-27T03:34:24Z
2019-08-27T01:37:06Z,42.805,6.029,13.2960,4.59957,2469.923,2019-8-27T03:37:27Z
2019-08-27T01:40:09Z,42.805,6.029,13.2957,4.59960,2469.876,2019-8-27T03:40:30Z
2019-08-27T01:43:12Z,42.805,6.029,13.2958,4.59957,2469.914,2019-8-27T03:43:34Z
2019-08-27T01:46:15Z,42.805,6.029,13.2958,4.59958,2469.914,2019-8-27T03:46:37Z
2019-08-27T01:49:19Z,42.805,6.029,13.2961,4.59958,2469.914,2019-8-27T03:49:40Z
2019-08-27T01:52:22Z,42.805,6.029,13.2956,4.59958,2469.876,2019-8-27T03:52:43Z
2019-08-27T01:55:25Z,42.805,6.029,13.2958,4.59958,2469.914,2019-8-27T03:55:47Z
2019-08-27T01:58:28Z,42.805,6.029,13.2958,4.59960,2469.937,2019-8-27T03:58:50Z
2019-08-27T02:01:31Z,42.805,6.029,13.2961,4.59958,2469.89,2019-8-27T04:01:53Z
2019-08-27T02:04:34Z,42.805,6.029,13.2958,4.59956,2469.923,2019-8-27T04:04:56Z
2019-08-27T02:07:38Z,42.805,6.029,13.2960,4.59958,2469.9,2019-8-27T04:07:59Z
2019-08-27T02:10:41Z,42.805,6.029,13.2961,4.59956,2469.9,2019-8-27T04:11:03Z
2019-08-27T02:13:44Z,42.805,6.029,13.2961,4.59965,2469.9,2019-8-27T04:14:06Z
2019-08-27T02:16:47Z,42.805,6.029,13.2958,4.59958,2469.89,2019-8-27T04:17:09Z
2019-08-27T02:19:51Z,42.805,6.029,13.2962,4.59964,2469.914,2019-8-27T04:20:12Z
2019-08-27T02:22:54Z,42.805,6.029,13.2959,4.59958,2469.9,2019-8-27T04:23:15Z
2019-08-27T02:25:57Z,42.805,6.029,13.2958,4.59956,2469.876,2019-8-27T04:26:18Z
2019-08-27T02:29:00Z,42.805,6.029,13.2956,4.59957,2469.923,2019-8-27T04:29:22Z
2019-08-27T02:32:03Z,42.805,6.029,13.2958,4.59956,2469.914,2019-8-27T04:32:25Z
2019-08-27T02:35:06Z,42.805,6.029,13.2959,4.59957,2469.9,2019-8-27T04:35:28Z
2019-08-27T02:38:10Z,42.805,6.029,13.2961,4.59956,2469.914,2019-8-27T04:38:31Z
2019-08-27T02:41:13Z,42.805,6.029,13.2962,4.59957,2469.914,2019-8-27T04:41:34Z
2019-08-27T02:44:16Z,42.805,6.029,13.2961,4.59957,2469.923,2019-8-27T04:44:38Z
2019-08-27T02:47:19Z,42.805,6.029,13.2968,4.59958,2469.89,2019-8-27T04:47:41Z
2019-08-27T02:50:22Z,42.805,6.029,13.2962,4.59958,2469.923,2019-8-27T04:50:44Z
2019-08-27T02:53:26Z,42.805,6.029,13.2961,4.59967,2469.9,2019-8-27T04:53:47Z
2019-08-27T02:56:29Z,42.805,6.029,13.2960,4.59957,2469.923,2019-8-27T04:56:50Z
2019-08-27T02:59:32Z,42.805,6.029,13.2960,4.59958,2469.923,2019-8-27T04:59:54Z
2019-08-27T03:02:35Z,42.805,6.029,13.2958,4.59958,2469.937,2019-8-27T05:02:57Z
2019-08-27T03:05:38Z,42.805,6.029,13.2965,4.59961,2469.914,2019-8-27T05:06:00Z
2019-08-27T03:08:42Z,42.805,6.029,13.2962,4.59957,2469.937,2019-8-27T05:09:03Z
2019-08-27T03:11:45Z,42.805,6.029,13.2964,4.59960,2469.923,2019-8-27T05:12:06Z
2019-08-27T03:14:48Z,42.805,6.029,13.2964,4.59958,2469.937,2019-8-27T05:15:10Z
2019-08-27T03:17:51Z,42.805,6.029,13.2962,4.59956,2469.937,2019-8-27T05:18:13Z
2019-08-27T03:20:54Z,42.805,6.029,13.2959,4.59956,2469.923,2019-8-27T05:21:16Z
2019-08-27T03:23:58Z,42.805,6.029,13.2959,4.59957,2469.923,2019-8-27T05:24:19Z
2019-08-27T03:27:01Z,42.805,6.029,13.2960,4.59957,2469.96,2019-8-27T05:27:23Z
2019-08-27T03:30:04Z,42.805,6.029,13.2958,4.59957,2469.97,2019-8-27T05:30:26Z
2019-08-27T03:33:07Z,42.805,6.029,13.2958,4.59968,2469.96,2019-8-27T05:33:29Z
2019-08-27T03:36:10Z,42.805,6.029,13.2959,4.59956,2469.937,2019-8-27T05:36:32Z
2019-08-27T03:39:14Z,42.805,6.029,13.2958,4.59956,2469.947,2019-8-27T05:39:35Z
2019-08-27T03:42:17Z,42.805,6.029,13.2961,4.59958,2469.947,2019-8-27T05:42:38Z
2019-08-27T03:45:20Z,42.805,6.029,13.2959,4.59959,2469.914,2019-8-27T05:45:42Z
2019-08-27T03:48:23Z,42.805,6.029,13.2960,4.59960,2469.923,2019-8-27T05:48:45Z
2019-08-27T03:51:26Z,42.805,6.029,13.2960,4.59959,2469.96,2019-8-27T05:51:48Z
2019-08-27T03:54:30Z,42.805,6.029,13.2964,4.59960,2469.947,2019-8-27T05:54:51Z
2019-08-27T03:57:33Z,42.805,6.029,13.2962,4.59956,2469.937,2019-8-27T05:57:54Z
2019-08-27T04:00:36Z,42.805,6.029,13.2959,4.59958,2469.923,2019-8-27T06:00:58Z
2019-08-27T04:03:39Z,42.805,6.029,13.2959,4.59958,2469.937,2019-8-27T06:04:01Z
2019-08-27T04:06:42Z,42.805,6.029,13.2960,4.59958,2469.923,2019-8-27T06:07:04Z
2019-08-27T04:09:45Z,42.805,6.029,13.2962,4.59958,2469.923,2019-8-27T06:10:07Z
2019-08-27T04:12:49Z,42.805,6.029,13.2961,4.59958,2469.96,2019-8-27T06:13:10Z
2019-08-27T04:15:52Z,42.805,6.029,13.2960,4.59956,2469.947,2019-8-27T06:16:14Z
2019-08-27T04:18:55Z,42.805,6.029,13.2961,4.59958,2469.9,2019-8-27T06:19:17Z
2019-08-27T04:21:58Z,42.805,6.029,13.2956,4.59964,2469.923,2019-8-27T06:22:20Z
2019-08-27T04:25:02Z,42.805,6.029,13.2961,4.59959,2469.923,2019-8-27T06:25:23Z
2019-08-27T04:28:05Z,42.805,6.029,13.2961,4.59960,2469.937,2019-8-27T06:28:26Z
2019-08-27T04:31:08Z,42.805,6.029,13.2961,4.59958,2469.947,2019-8-27T06:31:30Z
2019-08-27T04:34:11Z,42.805,6.029,13.2962,4.59960,2469.947,2019-8-27T06:34:33Z
2019-08-27T04:37:14Z,42.805,6.029,13.2961,4.59960,2469.923,2019-8-27T06:37:36Z
2019-08-27T04:40:18Z,42.805,6.029,13.2962,4.59960,2469.97,2019-8-27T06:40:39Z
2019-08-27T04:43:21Z,42.805,6.029,13.2961,4.59961,2469.914,2019-8-27T06:43:42Z
2019-08-27T04:46:24Z,42.805,6.029,13.2960,4.59961,2469.923,2019-8-27T06:46:46Z
2019-08-27T04:49:27Z,42.805,6.029,13.2960,4.59958,2469.923,2019-8-27T06:49:49Z
2019-08-27T04:52:30Z,42.805,6.029,13.2959,4.59958,2469.937,2019-8-27T06:52:52Z
2019-08-27T04:55:34Z,42.805,6.029,13.2957,4.59958,2469.947,2019-8-27T06:55:55Z
2019-08-27T04:58:37Z,42.805,6.029,13.2961,4.59958,2469.937,2019-8-27T06:58:58Z
2019-08-27T05:01:40Z,42.805,6.029,13.2956,4.59960,2469.937,2019-8-27T07:02:02Z
2019-08-27T05:04:43Z,42.805,6.029,13.2961,4.59963,2469.937,2019-8-27T07:05:05Z
2019-08-27T05:07:46Z,42.805,6.029,13.2955,4.59961,2469.947,2019-8-27T07:08:08Z
2019-08-27T05:10:50Z,42.805,6.029,13.2964,4.59967,2469.937,2019-8-27T07:11:11Z
2019-08-27T05:13:53Z,42.805,6.029,13.2953,4.59964,2469.984,2019-8-27T07:14:14Z
2019-08-27T05:16:56Z,42.805,6.029,13.2962,4.59966,2469.923,2019-8-27T07:17:17Z
2019-08-27T05:19:59Z,42.805,6.029,13.2963,4.59966,2469.96,2019-8-27T07:20:21Z
2019-08-27T05:23:03Z,42.805,6.029,13.2967,4.59963,2469.96,2019-8-27T07:23:24Z
2019-08-27T05:26:06Z,42.805,6.029,13.2956,4.59966,2469.947,2019-8-27T07:26:28Z
2019-08-27T05:29:09Z,42.805,6.029,13.2960,4.59966,2469.937,2019-8-27T07:29:31Z
2019-08-27T05:32:12Z,42.805,6.029,13.2963,4.59970,2469.923,2019-8-27T07:32:34Z
2019-08-27T05:35:16Z,42.805,6.029,13.2983,4.59989,2469.947,2019-8-27T07:35:37Z
2019-08-27T05:38:19Z,42.805,6.029,13.2974,4.59991,2469.937,2019-8-27T07:38:40Z
2019-08-27T05:41:22Z,42.805,6.029,13.2990,4.59988,2469.9,2019-8-27T07:41:43Z
2019-08-27T05:44:25Z,42.805,6.029,13.2980,4.59974,2469.937,2019-8-27T07:44:47Z
2019-08-27T05:47:28Z,42.805,6.029,13.2974,4.59967,2469.937,2019-8-27T07:47:50Z
2019-08-27T05:50:31Z,42.805,6.029,13.2966,4.59971,2469.947,2019-8-27T07:50:53Z
2019-08-27T05:53:35Z,42.805,6.029,13.2976,4.59966,2469.937,2019-8-27T07:53:56Z
2019-08-27T05:56:38Z,42.805,6.029,13.2998,4.59966,2469.937,2019-8-27T07:57:00Z
2019-08-27T05:59:41Z,42.805,6.029,13.2980,4.59973,2469.96,2019-8-27T08:00:03Z
2019-08-27T06:02:44Z,42.805,6.029,13.2983,4.59962,2469.9,2019-8-27T08:03:06Z
2019-08-27T06:05:47Z,42.805,6.029,13.2965,4.59968,2469.909,2019-8-27T08:06:09Z
2019-08-27T06:08:51Z,42.805,6.029,13.2982,4.59998,2469.914,2019-8-27T08:09:12Z
2019-08-27T06:11:54Z,42.805,6.029,13.2984,4.60031,2469.886,2019-8-27T08:12:15Z
2019-08-27T06:14:57Z,42.805,6.029,13.2988,4.60015,2469.9,2019-8-27T08:15:19Z
2019-08-27T06:18:00Z,42.805,6.029,13.2995,4.60017,2469.923,2019-8-27T08:18:22Z
2019-08-27T06:21:03Z,42.805,6.029,13.2990,4.60028,2469.937,2019-8-27T08:21:25Z
2019-08-27T06:24:07Z,42.805,6.029,13.2987,4.60040,2469.923,2019-8-27T08:24:28Z
2019-08-27T06:27:10Z,42.805,6.029,13.2994,4.60003,2469.923,2019-8-27T08:27:32Z
2019-08-27T06:30:13Z,42.805,6.029,13.2998,4.60057,2469.914,2019-8-27T08:30:35Z
2019-08-27T06:33:16Z,42.805,6.029,13.2975,4.60046,2469.89,2019-8-27T08:33:38Z
2019-08-27T06:36:20Z,42.805,6.029,13.2980,4.60022,2469.914,2019-8-27T08:36:41Z
2019-08-27T06:39:23Z,42.805,6.029,13.2986,4.60054,2469.937,2019-8-27T08:39:44Z
2019-08-27T06:42:26Z,42.805,6.029,13.2992,4.60031,2469.9,2019-8-27T08:42:48Z
2019-08-27T06:45:29Z,42.805,6.029,13.2998,4.60031,2469.937,2019-8-27T08:45:51Z
2019-08-27T06:48:32Z,42.805,6.029,13.2986,4.60069,2469.9,2019-8-27T08:48:54Z
2019-08-27T06:51:36Z,42.805,6.029,13.2976,4.60041,2469.89,2019-8-27T08:51:57Z
2019-08-27T06:54:39Z,42.805,6.029,13.2987,4.60033,2469.914,2019-8-27T08:55:00Z
2019-08-27T06:57:42Z,42.805,6.029,13.2984,4.60052,2469.876,2019-8-27T08:58:04Z
2019-08-27T07:00:45Z,42.805,6.029,13.2991,4.60054,2469.914,2019-8-27T09:01:07Z
2019-08-27T07:03:48Z,42.805,6.029,13.3001,4.60044,2469.9,2019-8-27T09:04:10Z
2019-08-27T07:06:52Z,42.805,6.029,13.2976,4.60052,2469.9,2019-8-27T09:07:13Z
2019-08-27T07:09:55Z,42.805,6.029,13.2981,4.60034,2469.89,2019-8-27T09:10:16Z
2019-08-27T07:12:58Z,42.805,6.029,13.2976,4.60039,2469.937,2019-8-27T09:13:20Z
2019-08-27T07:16:01Z,42.805,6.029,13.3004,4.60044,2469.876,2019-8-27T09:16:23Z
2019-08-27T07:19:04Z,42.805,6.029,13.3009,4.60044,2469.9,2019-8-27T09:19:26Z
2019-08-27T07:22:07Z,42.805,6.029,13.2987,4.60030,2469.876,2019-8-27T09:22:29Z
2019-08-27T07:25:11Z,42.805,6.029,13.3002,4.60052,2469.937,2019-8-27T09:25:32Z
2019-08-27T07:28:14Z,42.805,6.029,13.2982,4.60041,2469.9,2019-8-27T09:28:36Z
2019-08-27T07:31:17Z,42.805,6.029,13.3015,4.60048,2469.89,2019-8-27T09:31:39Z
2019-08-27T07:34:20Z,42.805,6.029,13.2993,4.60026,2469.853,2019-8-27T09:34:42Z
2019-08-27T07:37:23Z,42.805,6.029,13.2982,4.60002,2469.876,2019-8-27T09:37:45Z
2019-08-27T07:40:27Z,42.805,6.029,13.2987,4.60025,2469.853,2019-8-27T09:40:48Z
2019-08-27T07:43:30Z,42.805,6.029,13.2987,4.60046,2469.876,2019-8-27T09:43:51Z
2019-08-27T07:46:33Z,42.805,6.029,13.2991,4.60016,2469.853,2019-8-27T09:46:55Z
2019-08-27T07:49:36Z,42.805,6.029,13.2982,4.60022,2469.876,2019-8-27T09:49:58Z
2019-08-27T07:52:39Z,42.805,6.029,13.2979,4.60040,2469.89,2019-8-27T09:53:01Z
2019-08-27T07:55:43Z,42.805,6.029,13.2976,4.60031,2469.853,2019-8-27T09:56:04Z
2019-08-27T07:58:46Z,42.805,6.029,13.2998,4.60039,2469.89,2019-8-27T09:59:08Z
2019-08-27T08:01:49Z,42.805,6.029,13.2982,4.60025,2469.853,2019-8-27T10:02:11Z
2019-08-27T08:04:52Z,42.805,6.029,13.2985,4.60026,2469.89,2019-8-27T10:05:14Z
2019-08-27T08:07:55Z,42.805,6.029,13.2988,4.60037,2469.876,2019-8-27T10:08:17Z
2019-08-27T08:10:59Z,42.805,6.029,13.3001,4.60035,2469.876,2019-8-27T10:11:20Z
2019-08-27T08:14:02Z,42.805,6.029,13.2993,4.60021,2469.853,2019-8-27T10:14:23Z
2019-08-27T08:17:05Z,42.805,6.029,13.3005,4.60024,2469.914,2019-8-27T10:17:27Z
2019-08-27T08:20:08Z,42.805,6.029,13.3004,4.60031,2469.876,2019-8-27T10:20:30Z
2019-08-27T08:23:11Z,42.805,6.029,13.3000,4.60035,2469.867,2019-8-27T10:23:33Z
2019-08-27T08:26:15Z,42.805,6.029,13.3006,4.60031,2469.853,2019-8-27T10:26:36Z
2019-08-27T08:29:18Z,42.805,6.029,13.3023,4.60040,2469.867,2019-8-27T10:29:39Z
2019-08-27T08:32:21Z,42.805,6.029,13.3029,4.60082,2469.867,2019-8-27T10:32:43Z
2019-08-27T08:35:24Z,42.805,6.029,13.3039,4.60014,2469.853,2019-8-27T10:35:46Z
2019-08-27T08:38:27Z,42.805,6.029,13.3007,4.60049,2469.83,2019-8-27T10:38:49Z
2019-08-27T08:41:31Z,42.805,6.029,13.3011,4.60054,2469.821,2019-8-27T10:41:52Z
2019-08-27T08:44:34Z,42.805,6.029,13.3011,4.60011,2469.853,2019-8-27T10:44:56Z
2019-08-27T08:47:37Z,42.805,6.029,13.3017,4.60027,2469.844,2019-8-27T10:47:59Z
2019-08-27T08:50:40Z,42.805,6.029,13.2996,4.60053,2469.867,2019-8-27T10:51:02Z
2019-08-27T08:53:43Z,42.805,6.029,13.2989,4.60055,2469.867,2019-8-27T10:54:05Z
2019-08-27T08:56:47Z,42.805,6.029,13.3000,4.60046,2469.806,2019-8-27T10:57:08Z
2019-08-27T08:59:50Z,42.805,6.029,13.3007,4.60075,2469.821,2019-8-27T11:00:11Z
2019-08-27T09:02:53Z,42.805,6.029,13.2985,4.60045,2469.89,2019-8-27T11:03:15Z
2019-08-27T09:05:56Z,42.805,6.029,13.3015,4.60055,2469.867,2019-8-27T11:06:18Z
2019-08-27T09:08:59Z,42.805,6.029,13.3017,4.60019,2469.83,2019-8-27T11:09:21Z
2019-08-27T09:12:03Z,42.805,6.029,13.3015,4.60041,2469.844,2019-8-27T11:12:24Z
2019-08-27T09:15:06Z,42.805,6.029,13.3038,4.59999,2469.83,2019-8-27T11:15:27Z
2019-08-27T09:18:09Z,42.805,6.029,13.3030,4.60039,2469.844,2019-8-27T11:18:31Z
2019-08-27T09:21:12Z,42.805,6.029,13.3019,4.60021,2469.853,2019-8-27T11:21:34Z
2019-08-27T09:24:15Z,42.805,6.029,13.3015,4.59985,2469.844,2019-8-27T11:24:37Z
2019-08-27T09:27:19Z,42.805,6.029,13.3033,4.60006,2469.83,2019-8-27T11:27:40Z
2019-08-27T09:30:22Z,42.805,6.029,13.3024,4.60012,2469.806,2019-8-27T11:30:43Z
2019-08-27T09:33:25Z,42.805,6.029,13.3027,4.60009,2469.797,2019-8-27T11:33:47Z
2019-08-27T09:36:28Z,42.805,6.029,13.2995,4.60014,2469.806,2019-8-27T11:36:50Z
2019-08-27T09:39:32Z,42.805,6.029,13.3014,4.60011,2469.821,2019-8-27T11:39:53Z
2019-08-27T09:42:35Z,42.805,6.029,13.3043,4.60009,2469.844,2019-8-27T11:42:56Z
2019-08-27T09:45:38Z,42.805,6.029,13.3000,4.59997,2469.783,2019-8-27T11:46:00Z
2019-08-27T09:48:41Z,42.805,6.029,13.2976,4.59998,2469.806,2019-8-27T11:49:03Z
2019-08-27T09:51:44Z,42.805,6.029,13.3007,4.59988,2469.83,2019-8-27T11:52:06Z
2019-08-27T09:54:48Z,42.805,6.029,13.3003,4.60004,2469.844,2019-8-27T11:55:09Z
2019-08-27T09:57:51Z,42.805,6.029,13.2984,4.60005,2469.806,2019-8-27T11:58:12Z
2019-08-27T10:00:54Z,42.805,6.029,13.2979,4.60020,2469.806,2019-8-27T12:01:16Z
2019-08-27T10:03:57Z,42.805,6.029,13.2990,4.60028,2469.821,2019-8-27T12:04:19Z
2019-08-27T10:07:00Z,42.805,6.029,13.3006,4.59983,2469.844,2019-8-27T12:07:22Z
2019-08-27T10:10:04Z,42.805,6.029,13.2978,4.60006,2469.773,2019-8-27T12:10:25Z
2019-08-27T10:13:07Z,42.805,6.029,13.2983,4.59995,2469.844,2019-8-27T12:13:28Z
2019-08-27T10:16:10Z,42.805,6.029,13.2992,4.60005,2469.783,2019-8-27T12:16:32Z
2019-08-27T10:19:13Z,42.805,6.029,13.2998,4.60004,2469.83,2019-8-27T12:19:35Z
2019-08-27T10:22:16Z,42.805,6.029,13.2991,4.60040,2469.806,2019-8-27T12:22:38Z
2019-08-27T10:25:20Z,42.805,6.029,13.2999,4.60005,2469.821,2019-8-27T12:25:41Z
2019-08-27T10:28:23Z,42.805,6.029,13.2983,4.59985,2469.806,2019-8-27T12:28:45Z
2019-08-27T10:31:26Z,42.805,6.029,13.2984,4.59994,2469.797,2019-8-27T12:31:48Z
2019-08-27T10:34:29Z,42.805,6.029,13.3002,4.59980,2469.806,2019-8-27T12:34:51Z
2019-08-27T10:37:33Z,42.805,6.029,13.2992,4.59990,2469.821,2019-8-27T12:37:54Z
2019-08-27T10:40:36Z,42.805,6.029,13.2994,4.59976,2469.821,2019-8-27T12:40:57Z
2019-08-27T10:43:39Z,42.805,6.029,13.2993,4.59983,2469.83,2019-8-27T12:44:01Z
2019-08-27T10:46:42Z,42.805,6.029,13.2990,4.59991,2469.844,2019-8-27T12:47:04Z
2019-08-27T10:49:45Z,42.805,6.029,13.2996,4.59994,2469.806,2019-8-27T12:50:07Z
2019-08-27T10:52:49Z,42.805,6.029,13.2998,4.59996,2469.83,2019-8-27T12:53:10Z
2019-08-27T10:55:52Z,42.805,6.029,13.3003,4.59983,2469.806,2019-8-27T12:56:13Z
2019-08-27T10:58:55Z,42.805,6.029,13.2985,4.59988,2469.83,2019-8-27T12:59:16Z
2019-08-27T11:01:58Z,42.805,6.029,13.2991,4.59981,2469.83,2019-8-27T13:02:20Z
2019-08-27T11:05:01Z,42.805,6.029,13.2998,4.59987,2469.83,2019-8-27T13:05:23Z
2019-08-27T11:08:04Z,42.805,6.029,13.2996,4.59998,2469.806,2019-8-27T13:08:26Z
2019-08-27T11:11:08Z,42.805,6.029,13.2996,4.59979,2469.806,2019-8-27T13:11:29Z
2019-08-27T11:14:11Z,42.805,6.029,13.2998,4.59993,2469.83,2019-8-27T13:14:32Z
2019-08-27T11:17:14Z,42.805,6.029,13.2996,4.59991,2469.806,2019-8-27T13:17:36Z
2019-08-27T11:20:17Z,42.805,6.029,13.3007,4.59998,2469.844,2019-8-27T13:20:39Z
2019-08-27T11:23:20Z,42.805,6.029,13.2996,4.59991,2469.83,2019-8-27T13:23:42Z
2019-08-27T11:26:24Z,42.805,6.029,13.2995,4.59994,2469.844,2019-8-27T13:26:45Z
2019-08-27T11:29:27Z,42.805,6.029,13.3034,4.59993,2469.83,2019-8-27T13:29:48Z
2019-08-27T12:08:08Z,42.805,6.029,13.2979,4.59972,2469.821,2019-8-27T14:08:30Z
2019-08-27T12:11:11Z,42.805,6.029,13.2984,4.59972,2469.83,2019-8-27T14:11:33Z
2019-08-27T12:14:14Z,42.805,6.029,13.2983,4.59975,2469.806,2019-8-27T14:14:36Z
2019-08-27T12:17:18Z,42.805,6.029,13.2999,4.59974,2469.844,2019-8-27T14:17:39Z
2019-08-27T12:20:21Z,42.805,6.029,13.2979,4.59980,2469.821,2019-8-27T14:20:42Z
2019-08-27T12:23:24Z,42.805,6.029,13.2983,4.59977,2469.83,2019-8-27T14:23:46Z
2019-08-27T12:26:27Z,42.805,6.029,13.2995,4.59975,2469.83,2019-8-27T14:26:49Z
2019-08-27T12:29:30Z,42.805,6.029,13.2983,4.59978,2469.83,2019-8-27T14:29:52Z
2019-08-27T12:32:34Z,42.805,6.029,13.2979,4.59991,2469.844,2019-8-27T14:32:55Z
2019-08-27T12:35:37Z,42.805,6.029,13.2982,4.59989,2469.83,2019-8-27T14:35:58Z
2019-08-27T12:38:40Z,42.805,6.029,13.2986,4.59976,2469.83,2019-8-27T14:39:02Z
2019-08-27T12:41:43Z,42.805,6.029,13.2986,4.59990,2469.844,2019-8-27T14:42:05Z
2019-08-27T12:44:46Z,42.805,6.029,13.2979,4.59985,2469.867,2019-8-27T14:45:08Z
2019-08-27T12:47:50Z,42.805,6.029,13.2987,4.59977,2469.844,2019-8-27T14:48:11Z
2019-08-27T12:50:53Z,42.805,6.029,13.2969,4.59991,2469.821,2019-8-27T14:51:15Z
2019-08-27T12:53:56Z,42.805,6.029,13.2986,4.60000,2469.876,2019-8-27T14:54:18Z
2019-08-27T12:57:00Z,42.805,6.029,13.2993,4.59988,2469.844,2019-8-27T14:57:21Z
2019-08-27T13:00:03Z,42.805,6.029,13.2971,4.59990,2469.844,2019-8-27T15:00:24Z
2019-08-27T13:03:06Z,42.805,6.029,13.2980,4.59988,2469.844,2019-8-27T15:03:28Z
2019-08-27T13:06:09Z,42.805,6.029,13.2964,4.60005,2469.89,2019-8-27T15:06:31Z
2019-08-27T13:09:12Z,42.805,6.029,13.2962,4.59988,2469.89,2019-8-27T15:09:34Z
2019-08-27T13:12:16Z,42.805,6.029,13.2997,4.59987,2469.83,2019-8-27T15:12:37Z
2019-08-27T13:15:19Z,42.805,6.029,13.2961,4.60001,2469.853,2019-8-27T15:15:40Z
2019-08-27T13:18:22Z,42.805,6.029,13.2960,4.59993,2469.853,2019-8-27T15:18:44Z
2019-08-27T13:21:25Z,42.805,6.029,13.2961,4.59979,2469.853,2019-8-27T15:21:47Z
2019-08-27T13:24:28Z,42.805,6.029,13.2961,4.59975,2469.89,2019-8-27T15:24:50Z
2019-08-27T13:27:31Z,42.805,6.029,13.2969,4.59986,2469.853,2019-8-27T15:27:53Z
2019-08-27T13:30:35Z,42.805,6.029,13.2996,4.59974,2469.89,2019-8-27T15:30:56Z
2019-08-27T13:33:38Z,42.805,6.029,13.2964,4.59988,2469.853,2019-8-27T15:34:00Z
2019-08-27T13:36:41Z,42.805,6.029,13.2984,4.59981,2469.9,2019-8-27T15:37:03Z
2019-08-27T13:39:44Z,42.805,6.029,13.2962,4.59986,2469.867,2019-8-27T15:40:06Z
2019-08-27T13:42:48Z,42.805,6.029,13.2961,4.59985,2469.876,2019-8-27T15:43:09Z
2019-08-27T13:45:51Z,42.805,6.029,13.2957,4.59968,2469.853,2019-8-27T15:46:12Z
2019-08-27T13:48:54Z,42.805,6.029,13.2959,4.59971,2469.89,2019-8-27T15:49:15Z
2019-08-27T13:51:57Z,42.805,6.029,13.2960,4.59967,2469.89,2019-8-27T15:52:19Z
2019-08-27T13:55:00Z,42.805,6.029,13.2955,4.59962,2469.914,2019-8-27T15:55:22Z
2019-08-27T13:58:04Z,42.805,6.029,13.2958,4.59965,2469.9,2019-8-27T15:58:25Z
2019-08-27T14:01:07Z,42.805,6.029,13.2958,4.59963,2469.9,2019-8-27T16:01:28Z
2019-08-27T14:04:10Z,42.805,6.029,13.2961,4.59961,2469.914,2019-8-27T16:04:32Z
2019-08-27T14:07:13Z,42.805,6.029,13.2957,4.59961,2469.923,2019-8-27T16:07:35Z
2019-08-27T14:10:16Z,42.805,6.029,13.2961,4.59959,2469.914,2019-8-27T16:10:38Z
2019-08-27T14:13:20Z,42.805,6.029,13.2960,4.59960,2469.876,2019-8-27T16:13:41Z
2019-08-27T14:16:23Z,42.805,6.029,13.2958,4.59960,2469.9,2019-8-27T16:16:44Z
2019-08-27T14:19:26Z,42.805,6.029,13.2958,4.59958,2469.937,2019-8-27T16:19:48Z
2019-08-27T14:22:29Z,42.805,6.029,13.2958,4.59959,2469.923,2019-8-27T16:22:51Z
2019-08-27T14:25:32Z,42.805,6.029,13.2957,4.59961,2469.923,2019-8-27T16:25:54Z
2019-08-27T14:28:36Z,42.805,6.029,13.2961,4.59958,2469.9,2019-8-27T16:28:57Z
2019-08-27T14:31:39Z,42.805,6.029,13.2959,4.59957,2469.923,2019-8-27T16:32:00Z
2019-08-27T14:34:42Z,42.805,6.029,13.2957,4.59958,2469.937,2019-8-27T16:35:04Z
2019-08-27T14:37:45Z,42.805,6.029,13.2961,4.59961,2469.947,2019-8-27T16:38:07Z
2019-08-27T14:40:48Z,42.805,6.029,13.2961,4.59958,2469.914,2019-8-27T16:41:10Z
2019-08-27T14:43:52Z,42.805,6.029,13.2959,4.59963,2469.9,2019-8-27T16:44:13Z
2019-08-27T14:46:55Z,42.805,6.029,13.2962,4.59958,2469.937,2019-8-27T16:47:16Z
2019-08-27T14:49:58Z,42.805,6.029,13.2961,4.59958,2469.923,2019-8-27T16:50:20Z
2019-08-27T14:53:01Z,42.805,6.029,13.2953,4.59956,2469.96,2019-8-27T16:53:23Z
2019-08-27T14:56:05Z,42.805,6.029,13.2958,4.59957,2469.984,2019-8-27T16:56:26Z
2019-08-27T14:59:08Z,42.805,6.029,13.2959,4.59958,2469.96,2019-8-27T16:59:29Z
2019-08-27T15:02:11Z,42.805,6.029,13.2960,4.59963,2469.96,2019-8-27T17:02:33Z
2019-08-27T15:05:14Z,42.805,6.029,13.2959,4.59959,2469.937,2019-8-27T17:05:36Z
2019-08-27T15:08:17Z,42.805,6.029,13.2957,4.59957,2469.984,2019-8-27T17:08:39Z
2019-08-27T15:11:21Z,42.805,6.029,13.2958,4.59958,2469.937,2019-8-27T17:11:42Z
2019-08-27T15:14:24Z,42.805,6.029,13.2958,4.59958,2469.97,2019-8-27T17:14:45Z
2019-08-27T15:17:27Z,42.805,6.029,13.2960,4.59960,2469.947,2019-8-27T17:17:49Z
2019-08-27T15:20:30Z,42.805,6.029,13.2961,4.59958,2469.96,2019-8-27T17:20:52Z
2019-08-27T15:23:34Z,42.805,6.029,13.2959,4.59958,2470.007,2019-8-27T17:23:55Z
2019-08-27T15:26:37Z,42.805,6.029,13.2961,4.59960,2469.96,2019-8-27T17:26:59Z
2019-08-27T15:29:40Z,42.805,6.029,13.2961,4.59960,2469.97,2019-8-27T17:30:02Z
2019-08-27T15:32:43Z,42.805,6.029,13.2956,4.59959,2469.97,2019-8-27T17:33:05Z
2019-08-27T15:35:47Z,42.805,6.029,13.2957,4.59958,2469.96,2019-8-27T17:36:08Z
2019-08-27T15:38:50Z,42.805,6.029,13.2959,4.59958,2469.947,2019-8-27T17:39:11Z
2019-08-27T15:41:53Z,42.805,6.029,13.2956,4.59960,2469.97,2019-8-27T17:42:15Z
2019-08-27T15:44:56Z,42.805,6.029,13.2958,4.59958,2469.97,2019-8-27T17:45:18Z
2019-08-27T15:47:59Z,42.805,6.029,13.2958,4.59959,2469.97,2019-8-27T17:48:21Z
2019-08-27T15:51:03Z,42.805,6.029,13.2957,4.59958,2469.97,2019-8-27T17:51:24Z